When you browse on this site, cookies collect data to enhance your experience and personalize the content and advertising you see.
Visit our Privacy Policy to learn more. By continuing to use the site, you agree to this use of cookies and data.
  • In Lithuania
  • List of Countries
  • For 7 days
  • Water Temperature
  • Satellite Maps
  • Weather Map
  • Weather Widgets
  • user-avatar
    Login

    Hourly Weather Valencia

    Today, 20 April, Saturday

    Time Temperature Precipitation Wind Pressure Humidity
    00:00 +25°C° 1.1 mm 1 mps 718 mmHg 86%
    01:00 +25°C° 0 mm 1 mps 718 mmHg 89%
    02:00 +25°C° 0.1 mm 1 mps 718 mmHg 89%
    03:00 +24°C° 0.1 mm 1 mps 718 mmHg 90%
    04:00 +24°C° 0.1 mm 1 mps 718 mmHg 91%
    05:00 +25°C° 0.1 mm 1 mps 718 mmHg 87%
    06:00 +26°C° 0.1 mm 1 mps 719 mmHg 83%
    07:00 +27°C° 0 mm 1 mps 719 mmHg 77%
    08:00 +29°C° 0.6 mm 1 mps 720 mmHg 70%
    09:00 +31°C° 0.6 mm 1 mps 720 mmHg 64%
    10:00 +33°C° 0.6 mm 1 mps 720 mmHg 57%
    11:00 +32°C° 1.5 mm 1 mps 719 mmHg 59%
    12:00 +31°C° 1.5 mm 1 mps 719 mmHg 62%
    13:00 +30°C° 1.5 mm 1 mps 718 mmHg 65%
    14:00 +30°C° 1.6 mm 2 mps 718 mmHg 67%
    15:00 +30°C° 1.6 mm 2 mps 717 mmHg 69%
    16:00 +29°C° 1.6 mm 2 mps 717 mmHg 71%
    17:00 +28°C° 1.5 mm 2 mps 717 mmHg 76%
    18:00 +27°C° 1.5 mm 2 mps 717 mmHg 80%
    19:00 +26°C° 1.5 mm 2 mps 717 mmHg 85%
    20:00 +25°C° 0.1 mm 2 mps 718 mmHg 87%
    21:00 +25°C° 0.1 mm 2 mps 718 mmHg 90%
    22:00 +25°C° 0.1 mm 2 mps 719 mmHg 92%
    23:00 +25°C° 0 mm 2 mps 718 mmHg 92%

    Tomorrow, 21 April, Sunday

    Time Temperature Precipitation Wind Pressure Humidity
    00:00 +25°C° 0 mm 2 mps 718 mmHg 92%
    01:00 +25°C° 0 mm 2 mps 718 mmHg 92%
    02:00 +24°C° 0.5 mm 2 mps 718 mmHg 92%
    03:00 +24°C° 0.5 mm 2 mps 718 mmHg 92%
    04:00 +24°C° 0.5 mm 2 mps 717 mmHg 92%
    05:00 +25°C° 0.4 mm 2 mps 718 mmHg 90%
    06:00 +25°C° 0.4 mm 1 mps 718 mmHg 88%
    07:00 +26°C° 0.4 mm 1 mps 719 mmHg 85%
    08:00 +28°C° 0.8 mm 1 mps 719 mmHg 79%
    09:00 +29°C° 0.8 mm 1 mps 719 mmHg 73%
    10:00 +31°C° 0.8 mm 1 mps 719 mmHg 66%
    11:00 +31°C° 1.7 mm 1 mps 719 mmHg 68%
    12:00 +30°C° 1.7 mm 1 mps 718 mmHg 70%
    13:00 +30°C° 1.7 mm 2 mps 717 mmHg 72%
    14:00 +29°C° 1.4 mm 2 mps 717 mmHg 74%
    15:00 +29°C° 1.4 mm 2 mps 716 mmHg 77%
    16:00 +28°C° 1.4 mm 2 mps 716 mmHg 79%
    17:00 +27°C° 1.3 mm 2 mps 716 mmHg 83%
    18:00 +26°C° 1.3 mm 2 mps 716 mmHg 87%
    19:00 +25°C° 1.3 mm 2 mps 716 mmHg 90%
    20:00 +25°C° 1.2 mm 2 mps 717 mmHg 90%
    21:00 +25°C° 1.2 mm 3 mps 717 mmHg 90%
    22:00 +25°C° 1.2 mm 3 mps 718 mmHg 90%
    23:00 +25°C° 0.2 mm 3 mps 718 mmHg 91%

    Day after tomorrow, 22 April, Monday

    Time Temperature Precipitation Wind Pressure Humidity
    00:00 +25°C° 0.2 mm 3 mps 717 mmHg 92%
    01:00 +24°C° 0.2 mm 3 mps 717 mmHg 93%
    02:00 +24°C° 0.1 mm 3 mps 717 mmHg 92%
    03:00 +24°C° 0.1 mm 2 mps 716 mmHg 92%
    04:00 +24°C° 0.1 mm 2 mps 716 mmHg 92%
    05:00 +25°C° 0.3 mm 2 mps 717 mmHg 91%
    06:00 +25°C° 0.3 mm 2 mps 717 mmHg 90%
    07:00 +25°C° 0.3 mm 1 mps 718 mmHg 88%
    08:00 +27°C° 1.2 mm 2 mps 718 mmHg 83%
    09:00 +28°C° 1.2 mm 2 mps 718 mmHg 77%
    10:00 +29°C° 1.2 mm 2 mps 718 mmHg 72%
    11:00 +30°C° 2 mm 2 mps 718 mmHg 72%
    12:00 +30°C° 2 mm 2 mps 717 mmHg 72%
    13:00 +30°C° 2 mm 2 mps 716 mmHg 73%
    14:00 +29°C° 1.4 mm 2 mps 715 mmHg 76%
    15:00 +28°C° 1.4 mm 2 mps 715 mmHg 79%
    16:00 +28°C° 1.4 mm 3 mps 714 mmHg 82%
    17:00 +27°C° 1.7 mm 2 mps 715 mmHg 85%
    18:00 +26°C° 1.7 mm 2 mps 715 mmHg 88%
    19:00 +25°C° 1.7 mm 2 mps 716 mmHg 90%
    20:00 +25°C° 0.2 mm 2 mps 716 mmHg 91%
    21:00 +24°C° 0.2 mm 2 mps 717 mmHg 92%
    22:00 +24°C° 0.2 mm 2 mps 717 mmHg 93%
    23:00 +24°C° 0 mm 2 mps 717 mmHg 94%

    23 April, Tuesday

    Time Temperature Precipitation Wind Pressure Humidity
    00:00 +24°C° 0 mm 2 mps 716 mmHg 94%
    01:00 +24°C° 0 mm 2 mps 716 mmHg 94%
    02:00 +24°C° 0.1 mm 2 mps 716 mmHg 94%
    03:00 +24°C° 0.1 mm 2 mps 716 mmHg 93%
    04:00 +24°C° 0.1 mm 2 mps 716 mmHg 93%
    05:00 +24°C° 0.4 mm 2 mps 716 mmHg 92%
    06:00 +25°C° 0.4 mm 1 mps 717 mmHg 90%
    07:00 +25°C° 0.4 mm 1 mps 717 mmHg 88%
    08:00 +27°C° 1.4 mm 1 mps 718 mmHg 83%
    09:00 +28°C° 1.4 mm 1 mps 718 mmHg 78%
    10:00 +30°C° 1.4 mm 1 mps 719 mmHg 72%
    11:00 +29°C° 2.3 mm 1 mps 718 mmHg 75%
    12:00 +28°C° 2.3 mm 1 mps 717 mmHg 78%
    13:00 +28°C° 2.3 mm 1 mps 716 mmHg 81%
    14:00 +27°C° 2.6 mm 1 mps 715 mmHg 83%
    15:00 +27°C° 2.6 mm 1 mps 715 mmHg 86%
    16:00 +26°C° 2.6 mm 1 mps 715 mmHg 89%
    17:00 +26°C° 2.3 mm 1 mps 715 mmHg 90%
    18:00 +25°C° 2.3 mm 1 mps 716 mmHg 91%
    19:00 +25°C° 2.3 mm 1 mps 716 mmHg 93%
    20:00 +25°C° 1.9 mm 1 mps 717 mmHg 93%
    21:00 +25°C° 1.9 mm 1 mps 717 mmHg 93%
    22:00 +25°C° 1.9 mm 1 mps 717 mmHg 93%
    23:00 +25°C° 0.9 mm 1 mps 717 mmHg 94%

    24 April, Wednesday

    Time Temperature Precipitation Wind Pressure Humidity
    00:00 +24°C° 0.9 mm 1 mps 717 mmHg 94%
    01:00 +24°C° 0.9 mm 1 mps 716 mmHg 95%
    02:00 +24°C° 0.3 mm 1 mps 716 mmHg 95%
    03:00 +24°C° 0.3 mm 1 mps 716 mmHg 95%
    04:00 +24°C° 0.3 mm 1 mps 716 mmHg 95%
    05:00 +25°C° 0.7 mm 1 mps 717 mmHg 93%
    06:00 +23°C° 0.7 mm 0 mps 717 mmHg 91%
    07:00 +24°C° 0.7 mm 0 mps 718 mmHg 89%
    08:00 +24°C° 1.4 mm 0 mps 718 mmHg 86%
    09:00 +25°C° 1.4 mm 0 mps 718 mmHg 84%
    10:00 +25°C° 1.4 mm 0 mps 718 mmHg 82%
    11:00 +25°C° 1.2 mm 0 mps 717 mmHg 83%
    12:00 +25°C° 1.2 mm 0 mps 717 mmHg 83%
    13:00 +25°C° 1.2 mm 0 mps 716 mmHg 84%
    14:00 +25°C° 1.4 mm 0 mps 716 mmHg 85%
    15:00 +27°C° 1.4 mm 1 mps 716 mmHg 86%
    16:00 +26°C° 1.4 mm 1 mps 715 mmHg 87%
    17:00 +26°C° 1.4 mm 1 mps 716 mmHg 89%
    18:00 +26°C° 1.4 mm 1 mps 716 mmHg 91%
    19:00 +25°C° 1.4 mm 1 mps 717 mmHg 92%
    20:00 +25°C° 2.5 mm 1 mps 717 mmHg 92%
    21:00 +25°C° 2.5 mm 1 mps 718 mmHg 93%
    22:00 +25°C° 2.5 mm 1 mps 718 mmHg 93%
    23:00 +23°C° 2.9 mm 0 mps 718 mmHg 93%

    25 April, Thursday

    Time Temperature Precipitation Wind Pressure Humidity
    00:00 +23°C° 2.9 mm 0 mps 717 mmHg 93%
    01:00 +23°C° 2.9 mm 0 mps 717 mmHg 93%
    02:00 +22°C° 1.5 mm 0 mps 717 mmHg 93%
    03:00 +22°C° 1.5 mm 0 mps 717 mmHg 93%
    04:00 +22°C° 1.5 mm 0 mps 717 mmHg 93%
    05:00 +22°C° 0.9 mm 0 mps 717 mmHg 93%
    06:00 +23°C° 0.9 mm 0 mps 718 mmHg 92%
    07:00 +23°C° 0.9 mm 0 mps 718 mmHg 91%
    08:00 +25°C° 0.5 mm 1 mps 719 mmHg 87%
    09:00 +26°C° 0.5 mm 1 mps 719 mmHg 84%
    10:00 +27°C° 0.5 mm 1 mps 719 mmHg 80%
    11:00 +28°C° 0.1 mm 1 mps 718 mmHg 76%
    12:00 +29°C° 0.1 mm 2 mps 718 mmHg 73%
    13:00 +29°C° 0.1 mm 2 mps 717 mmHg 69%
    14:00 +29°C° 0.6 mm 1 mps 717 mmHg 72%
    15:00 +28°C° 0.6 mm 1 mps 717 mmHg 75%
    16:00 +28°C° 0.6 mm 1 mps 716 mmHg 78%
    17:00 +27°C° 0.3 mm 1 mps 717 mmHg 81%
    18:00 +24°C° 0.3 mm 0 mps 717 mmHg 84%
    19:00 +24°C° 0.3 mm 0 mps 718 mmHg 87%
    20:00 +24°C° 0.1 mm 0 mps 718 mmHg 88%
    21:00 +25°C° 0.1 mm 1 mps 718 mmHg 89%
    22:00 +25°C° 0.1 mm 1 mps 719 mmHg 90%
    23:00 +25°C° 0.1 mm 1 mps 718 mmHg 91%
    Show more